Location: Colebrook
(42.0017°N, 73.0973°W)
Time: 13:23:36
(UTC-04:00)

Envisat - Pass Details

Date: 06 October 2021
Orbit: 764 x 766 km, 98.2° (Epoch: 22 October)

Event Time Altitude Azimuth Distance (km) Brightness Sun altitude
Rises 04:49:57 0° 30° (NNE) 3,238 6.9 -23.9°
Reaches altitude 10° 04:53:01 10° 49° (NE) 2,306 6.3 -23.3°
Maximum altitude 04:56:25 18° 91° (E) 1,821 5.8 -22.7°
Drops below altitude 10° 04:59:46 10° 133° (SE) 2,295 5.9 -22.1°
Sets 05:02:48 0° 153° (SSE) 3,215 6.4 -21.6°
